STV4 EDDC-EDDH

Flight info

Callsign STV4
Flight time 0h 45m
Altitude 28000
Route OSKAN9E OSKAN M748 RARUP RARUP6A
Aircraft CL60/M-SADE3FGHIJ3J4J7P2RWXY/LB1V1D1

Departure

Time 2026-05-06 15:50
Airport Dresden Airport (EDDC)

Arrival

Time 2026-05-06 16:35
Airport Hamburg Helmut Schmidt Airport (EDDH)
Time Latitude Longitude Altitude Speed Heading
2026-05-06 15:12 51.12308 13.75872 751 ft 0 kts 40°
2026-05-06 15:46 51.12313 13.75879 751 ft 9 kts 48°
2026-05-06 15:46 51.12363 13.76001 753 ft 12 kts 59°
2026-05-06 15:47 51.12409 13.76090 753 ft 11 kts 43°
2026-05-06 15:47 51.12475 13.76150 753 ft 10 kts 351°
2026-05-06 15:47 51.12543 13.76101 751 ft 12 kts 315°
2026-05-06 15:47 51.12608 13.75996 748 ft 13 kts 314°
2026-05-06 15:48 51.12663 13.75901 747 ft 12 kts 310°
2026-05-06 15:48 51.12695 13.75840 747 ft 6 kts 310°
2026-05-06 15:48 51.12748 13.75854 745 ft 9 kts 41°
2026-05-06 15:48 51.12754 13.75863 745 ft 0 kts 41°
2026-05-06 15:49 51.12757 13.75867 745 ft 8 kts 41°
2026-05-06 15:49 51.13026 13.76236 736 ft 91 kts 41°
2026-05-06 15:49 51.13688 13.77137 755 ft 152 kts 38°
2026-05-06 15:50 51.14576 13.78337 1000 ft 184 kts 38°
2026-05-06 15:50 51.15591 13.79547 1889 ft 181 kts 35°
2026-05-06 15:50 51.16631 13.80754 2609 ft 189 kts 35°
2026-05-06 15:50 51.17675 13.81961 3451 ft 191 kts 36°
2026-05-06 15:51 51.18742 13.83321 4338 ft 206 kts 41°
2026-05-06 15:51 51.19859 13.84999 5077 ft 239 kts 43°
2026-05-06 15:51 51.21367 13.86441 5963 ft 264 kts 12°
2026-05-06 15:51 51.23207 13.86381 6975 ft 278 kts 346°
2026-05-06 15:52 51.25124 13.85738 8112 ft 287 kts 345°
2026-05-06 15:52 51.27056 13.85100 9274 ft 293 kts 345°
2026-05-06 15:52 51.29062 13.84458 10479 ft 298 kts 344°
2026-05-06 15:52 51.31014 13.83417 11702 ft 299 kts 329°
2026-05-06 15:53 51.32699 13.81634 12927 ft 297 kts 315°
2026-05-06 15:53 51.34245 13.79467 14185 ft 296 kts 314°
2026-05-06 15:53 51.35777 13.77304 15129 ft 307 kts 314°
2026-05-06 15:53 51.37446 13.74940 15584 ft 333 kts 314°
2026-05-06 15:54 51.39236 13.72405 15814 ft 358 kts 315°
2026-05-06 15:54 51.41144 13.69716 16641 ft 367 kts 315°
2026-05-06 15:54 51.43059 13.67018 17704 ft 368 kts 314°
2026-05-06 15:54 51.44975 13.64315 18651 ft 371 kts 314°
2026-05-06 15:55 51.46897 13.61600 19527 ft 375 kts 314°
2026-05-06 15:55 51.48871 13.58808 20382 ft 379 kts 314°
2026-05-06 15:55 51.50850 13.56009 21215 ft 383 kts 314°
2026-05-06 15:55 51.52846 13.53180 21990 ft 387 kts 314°
2026-05-06 15:56 51.54881 13.50293 22732 ft 391 kts 314°
2026-05-06 15:56 51.56910 13.47411 23454 ft 395 kts 314°
2026-05-06 15:56 51.58987 13.44455 24138 ft 400 kts 314°
2026-05-06 15:56 51.61068 13.41491 24784 ft 404 kts 313°
2026-05-06 15:57 51.63186 13.38472 25438 ft 408 kts 313°
2026-05-06 15:57 51.65310 13.35439 26055 ft 412 kts 313°
2026-05-06 15:57 51.67455 13.32369 26634 ft 416 kts 312°
2026-05-06 15:57 51.69627 13.29254 27190 ft 419 kts 311°
2026-05-06 15:58 51.71854 13.26054 27627 ft 426 kts 311°
2026-05-06 15:58 51.74114 13.22797 27750 ft 439 kts 311°
2026-05-06 15:58 51.76467 13.19401 27756 ft 453 kts 312°
2026-05-06 15:58 51.78818 13.16009 27754 ft 459 kts 312°
2026-05-06 15:59 51.81225 13.12539 27757 ft 459 kts 312°
2026-05-06 15:59 51.83604 13.09109 27759 ft 456 kts 312°
2026-05-06 15:59 51.85951 13.05716 27758 ft 454 kts 312°
2026-05-06 15:59 51.88314 13.02295 27760 ft 453 kts 312°
2026-05-06 16:00 51.90664 12.98888 27759 ft 453 kts 312°
2026-05-06 16:00 51.93015 12.95471 27759 ft 453 kts 312°
2026-05-06 16:00 51.95369 12.92045 27758 ft 453 kts 312°
2026-05-06 16:00 51.97703 12.88644 27759 ft 453 kts 312°
2026-05-06 16:01 52.00035 12.85238 27760 ft 453 kts 312°
2026-05-06 16:01 52.02396 12.81786 27761 ft 453 kts 312°
2026-05-06 16:01 52.04723 12.78378 27759 ft 453 kts 312°
2026-05-06 16:01 52.07066 12.74941 27759 ft 453 kts 312°
2026-05-06 16:02 52.09419 12.71485 27759 ft 453 kts 312°
2026-05-06 16:02 52.11746 12.68058 27759 ft 453 kts 312°
2026-05-06 16:02 52.14097 12.64591 27758 ft 453 kts 312°
2026-05-06 16:02 52.16433 12.61146 27759 ft 453 kts 312°
2026-05-06 16:03 52.18756 12.57714 27758 ft 453 kts 312°
2026-05-06 16:03 52.21098 12.54247 27759 ft 453 kts 312°
2026-05-06 16:03 52.23425 12.50800 27758 ft 453 kts 312°
2026-05-06 16:03 52.25715 12.47360 27758 ft 452 kts 310°
2026-05-06 16:04 52.27909 12.43673 27757 ft 449 kts 308°
2026-05-06 16:04 52.30045 12.39964 27758 ft 449 kts 308°
2026-05-06 16:04 52.32182 12.36257 27757 ft 449 kts 308°
2026-05-06 16:04 52.34442 12.32658 27758 ft 453 kts 312°
2026-05-06 16:05 52.36805 12.29263 27756 ft 454 kts 313°
2026-05-06 16:05 52.39190 12.25836 27756 ft 454 kts 312°
2026-05-06 16:05 52.41549 12.22440 27757 ft 454 kts 312°
2026-05-06 16:05 52.43917 12.19025 27757 ft 454 kts 312°
2026-05-06 16:06 52.46294 12.15590 27757 ft 454 kts 312°
2026-05-06 16:06 52.48641 12.12195 27756 ft 453 kts 312°
2026-05-06 16:06 52.51047 12.08708 27756 ft 453 kts 312°
2026-05-06 16:06 52.53392 12.05306 27755 ft 453 kts 313°
2026-05-06 16:07 52.55744 12.01887 27755 ft 453 kts 312°
2026-05-06 16:07 52.58115 11.98434 27756 ft 453 kts 312°
2026-05-06 16:07 52.60501 11.94956 27756 ft 453 kts 312°
2026-05-06 16:07 52.62875 11.91499 27756 ft 454 kts 313°
2026-05-06 16:08 52.65361 11.88209 27757 ft 457 kts 316°
2026-05-06 16:08 52.67870 11.85047 27756 ft 457 kts 316°
2026-05-06 16:08 52.70421 11.81822 27756 ft 457 kts 316°
2026-05-06 16:08 52.72923 11.78653 27757 ft 457 kts 316°
2026-05-06 16:09 52.75460 11.75435 27756 ft 457 kts 316°
2026-05-06 16:09 52.77955 11.72266 27756 ft 457 kts 316°
2026-05-06 16:09 52.79945 11.69735 27756 ft 457 kts 316°
2026-05-06 16:09 52.82357 11.66661 27756 ft 457 kts 316°
2026-05-06 16:10 52.84851 11.63480 27756 ft 457 kts 316°
2026-05-06 16:10 52.87373 11.60257 27756 ft 457 kts 316°
2026-05-06 16:10 52.89924 11.56992 27755 ft 457 kts 316°
2026-05-06 16:10 52.92414 11.53802 27492 ft 453 kts 316°
2026-05-06 16:11 52.94866 11.50662 26969 ft 445 kts 317°
2026-05-06 16:11 52.97279 11.47568 26418 ft 437 kts 317°
2026-05-06 16:11 52.99666 11.44500 25862 ft 430 kts 317°
2026-05-06 16:11 53.02005 11.41489 25302 ft 423 kts 317°
2026-05-06 16:12 53.04297 11.38523 24759 ft 416 kts 316°
2026-05-06 16:12 53.06230 11.35122 24196 ft 398 kts 298°
2026-05-06 16:12 53.07570 11.31125 23621 ft 389 kts 292°
2026-05-06 16:12 53.08830 11.27162 23073 ft 384 kts 292°
2026-05-06 16:13 53.10082 11.23238 22533 ft 378 kts 293°
2026-05-06 16:13 53.11295 11.19439 22563 ft 362 kts 292°
2026-05-06 16:13 53.12498 11.15648 22621 ft 369 kts 292°
2026-05-06 16:13 53.13694 11.11865 22640 ft 379 kts 293°
2026-05-06 16:14 53.14928 11.07968 22645 ft 383 kts 293°
2026-05-06 16:14 53.16175 11.04028 22645 ft 382 kts 293°
2026-05-06 16:14 53.17407 11.00130 22644 ft 381 kts 293°
2026-05-06 16:14 53.18650 10.96194 22645 ft 380 kts 292°
2026-05-06 16:15 53.19883 10.92282 22645 ft 380 kts 293°
2026-05-06 16:15 53.21119 10.88356 22646 ft 380 kts 293°
2026-05-06 16:15 53.22332 10.84493 22646 ft 380 kts 293°
2026-05-06 16:15 53.23563 10.80571 22645 ft 380 kts 293°
2026-05-06 16:16 53.24791 10.76649 22646 ft 380 kts 293°
2026-05-06 16:16 53.25997 10.72792 22646 ft 380 kts 293°
2026-05-06 16:16 53.27224 10.68864 22646 ft 380 kts 293°
2026-05-06 16:16 53.28447 10.64943 22645 ft 380 kts 293°
2026-05-06 16:17 53.29676 10.60994 22647 ft 380 kts 293°
2026-05-06 16:17 53.30893 10.57076 22437 ft 383 kts 293°
2026-05-06 16:17 53.32127 10.53102 21970 ft 381 kts 293°
2026-05-06 16:17 53.33330 10.49222 21495 ft 376 kts 293°
2026-05-06 16:18 53.34528 10.45357 21013 ft 370 kts 293°
2026-05-06 16:18 53.35697 10.41577 20531 ft 363 kts 293°
2026-05-06 16:18 53.36829 10.37909 20061 ft 356 kts 293°
2026-05-06 16:18 53.37962 10.34235 19592 ft 350 kts 292°
2026-05-06 16:19 53.39093 10.30558 19119 ft 344 kts 292°
2026-05-06 16:19 53.40180 10.27017 18666 ft 339 kts 292°
2026-05-06 16:19 53.41248 10.23535 18219 ft 334 kts 292°
2026-05-06 16:19 53.42299 10.20099 17779 ft 329 kts 292°
2026-05-06 16:20 53.43339 10.16698 17341 ft 325 kts 292°
2026-05-06 16:20 53.44364 10.13338 16912 ft 321 kts 292°
2026-05-06 16:20 53.45384 10.09992 16483 ft 316 kts 292°
2026-05-06 16:20 53.46370 10.06751 16068 ft 313 kts 292°
2026-05-06 16:21 53.47352 10.03520 15655 ft 309 kts 292°
2026-05-06 16:21 53.48312 10.00353 15248 ft 305 kts 292°
2026-05-06 16:21 53.48987 9.97011 14815 ft 296 kts 274°
2026-05-06 16:21 53.48883 9.93621 14374 ft 288 kts 254°
2026-05-06 16:22 53.48084 9.90594 13932 ft 284 kts 236°
2026-05-06 16:22 53.46851 9.87995 13509 ft 282 kts 230°
2026-05-06 16:22 53.45598 9.85500 13163 ft 278 kts 230°
2026-05-06 16:22 53.44382 9.83064 12798 ft 274 kts 230°
2026-05-06 16:23 53.43161 9.80622 12438 ft 271 kts 230°
2026-05-06 16:23 53.41951 9.78202 12077 ft 269 kts 230°
2026-05-06 16:23 53.40767 9.75836 11728 ft 266 kts 230°
2026-05-06 16:23 53.39578 9.73462 11372 ft 263 kts 230°
2026-05-06 16:24 53.38405 9.71121 11024 ft 260 kts 230°
2026-05-06 16:24 53.37266 9.68851 10685 ft 257 kts 230°
2026-05-06 16:24 53.36117 9.66560 10346 ft 254 kts 230°
2026-05-06 16:24 53.35010 9.64356 10182 ft 245 kts 230°
2026-05-06 16:25 53.33907 9.62163 9781 ft 246 kts 230°
2026-05-06 16:25 53.32807 9.59976 9478 ft 243 kts 230°
2026-05-06 16:25 53.31715 9.57806 9144 ft 241 kts 230°
2026-05-06 16:25 53.30739 9.55559 8807 ft 240 kts 243°
2026-05-06 16:26 53.30315 9.52870 8388 ft 244 kts 266°
2026-05-06 16:26 53.30614 9.50083 8002 ft 248 kts 291°
2026-05-06 16:26 53.31640 9.47734 7488 ft 260 kts 317°
2026-05-06 16:26 53.33197 9.46251 7129 ft 263 kts 340°
2026-05-06 16:27 53.35031 9.45871 6672 ft 268 kts
2026-05-06 16:27 53.36787 9.46880 6215 ft 272 kts 34°
2026-05-06 16:27 53.38187 9.49043 5781 ft 272 kts 49°
2026-05-06 16:27 53.39407 9.51461 5370 ft 270 kts 50°
2026-05-06 16:28 53.40610 9.53873 4888 ft 265 kts 50°
2026-05-06 16:28 53.41789 9.56232 4521 ft 260 kts 50°
2026-05-06 16:28 53.42956 9.58559 4041 ft 253 kts 50°
2026-05-06 16:28 53.44048 9.60732 3864 ft 235 kts 51°
2026-05-06 16:29 53.45058 9.62745 3952 ft 209 kts 50°
2026-05-06 16:29 53.45922 9.64465 4327 ft 186 kts 50°
2026-05-06 16:29 53.46766 9.66148 4625 ft 185 kts 50°
2026-05-06 16:29 53.47592 9.67795 4759 ft 188 kts 50°
2026-05-06 16:30 53.48444 9.69498 4594 ft 189 kts 50°
2026-05-06 16:30 53.49000 9.70610 4344 ft 187 kts 51°
2026-05-06 16:30 53.50126 9.72863 3683 ft 187 kts 51°
2026-05-06 16:30 53.50940 9.74492 3252 ft 180 kts 50°
2026-05-06 16:31 53.51714 9.76042 3059 ft 164 kts 50°
2026-05-06 16:31 53.52440 9.77495 2962 ft 162 kts 50°
2026-05-06 16:31 53.53169 9.78957 2786 ft 163 kts 51°
2026-05-06 16:31 53.53919 9.80460 2549 ft 162 kts 51°
2026-05-06 16:32 53.54632 9.81892 2321 ft 153 kts 51°
2026-05-06 16:32 53.55294 9.83224 2084 ft 139 kts 50°
2026-05-06 16:32 53.55914 9.84469 1905 ft 134 kts 51°
2026-05-06 16:32 53.56501 9.85648 1758 ft 131 kts 51°
2026-05-06 16:33 53.57083 9.86819 1569 ft 128 kts 50°
2026-05-06 16:33 53.57644 9.87948 1396 ft 126 kts 51°
2026-05-06 16:33 53.58215 9.89101 1228 ft 129 kts 51°
2026-05-06 16:34 53.59320 9.91337 892 ft 131 kts 50°
2026-05-06 16:34 53.59890 9.92481 728 ft 125 kts 50°
2026-05-06 16:34 53.60457 9.93638 534 ft 127 kts 52°
2026-05-06 16:34 53.61026 9.94780 377 ft 124 kts 50°
2026-05-06 16:35 53.61577 9.95859 189 ft 119 kts 51°
2026-05-06 16:35 53.62116 9.96958 42 ft 119 kts 50°
2026-05-06 16:35 53.62583 9.97904 29 ft 78 kts 50°
2026-05-06 16:35 53.62759 9.98281 34 ft 11 kts 75°
2026-05-06 16:36 53.62729 9.98375 36 ft 6 kts 141°
2026-05-06 16:36 53.62692 9.98426 36 ft 8 kts 140°
2026-05-06 16:36 53.62674 9.98463 36 ft 3 kts 105°
2026-05-06 16:36 53.62681 9.98518 37 ft 6 kts 67°
2026-05-06 16:37 53.62712 9.98595 37 ft 9 kts 51°
2026-05-06 16:37 53.62754 9.98682 37 ft 6 kts 51°
2026-05-06 16:37 53.62786 9.98747 37 ft 5 kts 51°
2026-05-06 16:37 53.62797 9.98791 37 ft 5 kts 126°
2026-05-06 16:38 53.62765 9.98820 37 ft 4 kts 153°
2026-05-06 16:38 53.62748 9.98818 37 ft 3 kts 226°
2026-05-06 16:38 53.62738 9.98794 37 ft 3 kts 240°
2026-05-06 16:38 53.62736 9.98790 37 ft 0 kts 241°
2026-05-06 16:39 53.62736 9.98791 37 ft 0 kts 241°
2026-05-06 17:00 53.62736 9.98790 37 ft 0 kts 241°